Regional Weather Roundup
Issued by NWS Northern Indiana

Home | Current Version | Previous Version | Graphics & Text | Print | Product List | Glossary On
Versions: 1 2 3 4 5 6 7 8 9 10 11 12 13 14 15 16 17 18 19 20 21 22 23 24 25 26 27 28 29 30 31 32 33 34 35 36 37 38 39 40 41 42 43 44 45 46 47 48 49 50
000
ASUS43 KIWX 241410
RWRIWX

KIWX WEATHER ROUNDUP
NATIONAL WEATHER SERVICE NORTHERN INDIANA
1000 AM EDT FRI MAR 24 2017

NOTE: "FAIR" INDICATES FEW OR NO CLOUDS BELOW 12,000 FEET WITH NO
SIGNIFICANT WEATHER AND/OR OBSTRUCTIONS TO VISIBILITY.

* THESE STATIONS ARE NOT UNDER NWS QUALITY CONTROL. THEY ALSO MAY NOT
  REPORT WEATHER SUCH AS PRECIPITATION OR FOG.

INZ001>027-241500-
NORTHERN INDIANA

CITY           SKY/WX    TMP DP  RH WIND       PRES   REMARKS
GARY*          PTSUNNY   59  45  58 S15G29    29.96S
VALPARAISO     CLOUDY    60  49  66 SW18G26   30.00S
MICHIGAN CITY* MOSUNNY   59  46  63 S15G25    29.97F
LAPORTE*       CLOUDY    57  48  71 SW16G23   30.00R
KNOX*          CLOUDY    59  28  31 SW17G24   30.00S
SOUTH BEND     SUNNY     58  47  66 SW21G31   29.99F
ELKHART*       SUNNY     57  46  67 SW12G17   30.00S
GOSHEN         SUNNY     57  45  64 SW20      30.01F
MONTICELLO*    CLOUDY    59  48  67 S13G18    30.05S
LOGANSPORT*    CLOUDY    59  50  72 S16G22    30.08S
ROCHESTER*     MOSUNNY   59  46  63 SW16G26   30.05S
WARSAW*        SUNNY     55  45  67 SW14G20   30.03F
ANGOLA*        SUNNY     55  45  67 S13       30.02S
FORT WAYNE     PTSUNNY   57  47  69 SW18      30.07S
HUNTINGTON*    MOSUNNY   56  46  70 S14G21    30.07F
PERU/GRISSOM   CLOUDY    56  49  76 S10       30.06F
MARION*        MOSUNNY   54  46  72 S18G24    30.11F

$$
INZ028>050-241500-
CENTRAL INDIANA

CITY           SKY/WX    TMP DP  RH WIND       PRES   REMARKS
LAFAYETTE      CLOUDY    60  51  72 S8        30.07S
KOKOMO*        CLOUDY    54  46  74 S15       30.10S
MUNCIE*        CLOUDY    57  45  64 S17       30.13R
INDIANAPOLIS   PTSUNNY   59  49  69 S12       30.13R

$$
MIZ043>046-050>051-056>058-064>065-071>073-077>080-241500-
SOUTHWEST LOWER MICHIGAN

CITY           SKY/WX    TMP DP  RH WIND       PRES   REMARKS
BATTLE CREEK   PTSUNNY   55  45  68 SW15G24   29.96F
BENTON HARBOR  CLOUDY    57  45  64 S10       29.94F
COLDWATER*     MOSUNNY   56  45  66 SW20      29.99F
HILLSDALE*     CLOUDY    50  43  76 S10G18    30.01S
HOLLAND        CLOUDY    57  45  64 SW22G33   29.94R
GRAND RAPIDS   CLOUDY    54  44  69 CALM      29.94S
KALAMAZOO      CLOUDY    57  45  64 SW20G29   29.97F
STURGIS*       MOSUNNY   55  46  71 SW21G28   30.00S
THREE RIVERS*  FAIR      56  45  66 SW17G24   29.98F

$$
OHZ001>008-015>018-024>025-241500-
NORTHWEST OHIO

CITY           SKY/WX    TMP DP  RH WIND       PRES   REMARKS
WAUSEON*       FAIR      55  46  71 SW21G28   30.03S
DEFIANCE       CLOUDY    53  43  68 S20G28    30.05F
FINDLAY        PTSUNNY   57  44  62 SW22G36   30.08F
TOLEDO EXPRESS CLOUDY    56  45  66 SW21G30   30.03F
TOLEDO METCALF CLOUDY    57  47  69 SW23G29   30.05F
LIMA           CLOUDY    56  45  66 S18G29    30.12S

$$
AND FOR LAKE MICHIGAN COASTAL AND OPEN LAKE BUOY OBSERVATIONS

STATION/POSITION TEMP    WIND        PRES    VSBY  WAVE
                 AIR SEA DIR/SP/G                  HT/PER
                 (F)     (DEG/KT/KT) (MB)    (MI)  (FT/S)
CALUMET HARBOR    57     190/ 12/ 16 1013.4S
MICHIGAN CITY     59     180/ 23/ 28   N/A
BURNS HARBOR      58     200/ 23/ 28 1014.6S

$$
&&




USA.gov is the U.S. government's official web portal to all federal, state and local government web resources and services.